COSMOS 1602

导读 | 豆包AI

**COSMOS 1602(宇宙1602)卫星**是独联体(CIS,继承自苏联航天体系)所属的人造卫星,属于苏联/俄罗斯“宇宙”系列无人卫星家族。它于1984年9月28日发射入轨,运行在近地点370千米、远地点379千米,轨道倾角82.5°的近地轨道上。“宇宙”系列卫星承担多类任务,涵盖科学实验、空间技术验证与航天应用研究,该卫星长期在轨稳定运行,至今仍可观测到其过境轨迹。

Basic Information
目录编号:
15331
目录名称:
COSMOS 1602
国际标识:
1984-105A
轨道中心:
EARTH
卫星名称:
COSMOS 1602
卫星全名:
--
卫星状态:
在轨 (已飞行15189 天)
发射日期:
1984-09-28 UTC
国别 :
俄罗斯(独联体) (CIS)
星等 :
--
Orbit Information
数据来源 国际轨道数据
星历时间: 2026-04-30T22:02:04+0800
2小时前
查看轨道信息
半长轴: 6614.247km
偏心率: 0.0003446
轨道倾角: 82.497°
近地点辐角 201.685°
升交点赤经 338.874°
平近点角 158.429°
近地点: 233.83km
远地点: 238.39km
周期: 89.224分钟
每日圈数: 16.139208
Detailed Information
使用方式:
暂无
2D Orbit Map
3D Orbit Map
Orbit Altitude Analysis Chart
Orbit Inclination Analysis Chart
Orbit Comprehensive Analysis Chart
View Comprehensive Chart